[[{"header":{"parameterUnit":"m.s-1","parameterCategory":1,"la1":30.2991,"la2":30.254,"lo1":-89.0895,"lo2":-89.0444,"dy":0.0017,"dx":0.0017,"nx":28,"ny":28,"refTime":"2024-06-12T09:00:00:Z","depth":0,"parameterNumber":2,"parameterNumberName":"U-component_of_WINDS"},"data":[0,0,0,0,0,0,0,0,0,0,0,0,0,0,0,0,0,0,0,0,0,0,0,0,0,0,0,0,0,0,0,0,0,0,0,0,0,0,0,0,0,0,0,0,0,0,0,0,0,0,0,0,0,0,0,0,0,0,-1.9297,-1.9296,0,-1.9254,-1.9254,-1.9253,-1.9179,-1.9177,-1.9176,-1.9175,-1.9132,-1.9132,-1.9132,0,0,0,0,0,0,0,0,0,0,0,0,0,-1.9314,-1.9314,-1.9297,-1.9296,-1.9296,-1.9254,-1.9253,-1.9253,-1.9179,-1.9177,-1.9176,-1.9174,-1.9132,-1.9132,-1.9132,0,0,0,0,0,0,0,0,0,0,0,0,0,-1.9292,-1.9314,-1.9297,-1.9254,-1.9249,-1.9254,-1.9253,-1.9253,-1.9179,-1.9177,-1.9175,-1.9173,-1.9132,-1.9132,-1.9132,-1.9176,0,0,-1.9133,-1.9133,0,0,0,0,0,0,0,0,-1.9294,-1.9292,-1.926,-1.9257,-1.9252,-1.9219,-1.9244,-1.9227,-1.918,-1.9206,-1.9175,-1.9172,-1.9163,-1.916,-1.9157,-1.9174,-1.9172,-1.9133,-1.9133,-1.9133,-1.9133,0,0,0,0,0,0,0,-1.9295,-1.9293,-1.928,-1.926,-1.9255,-1.9236,-1.9231,-1.924,-1.9197,-1.9203,-1.9198,-1.9194,-1.916,-1.9157,-1.9155,-1.9171,-1.9133,-1.9133,-1.9133,-1.9133,-1.922,-1.9222,0,0,0,0,0,0,-1.9303,-1.9295,-1.9281,-1.9278,-1.9268,-1.9238,-1.9232,-1.9232,-1.9196,-1.9189,-1.9196,-1.9191,-1.9157,-1.9155,-1.9154,-1.92,-1.9133,-1.9133,-1.9133,-1.9217,-1.922,-1.9222,0,0,0,0,0,0,-1.9304,-1.9302,-1.9283,-1.9285,-1.9281,-1.924,-1.9241,-1.9232,-1.9229,-1.919,-1.9182,-1.9201,-1.9156,-1.9153,-1.917,-1.9198,-1.9133,-1.9134,-1.9215,-1.9218,-1.9221,-1.9296,0,0,0,0,0,0,-1.9304,-1.9303,-1.9319,-1.9286,-1.9281,-1.9301,-1.9242,-1.9233,-1.923,-1.9222,-1.9193,-1.9186,-1.9154,-1.917,-1.917,-1.9197,-1.9134,-1.9212,-1.9216,-1.922,-1.9291,-1.9302,-1.9311,0,0,0,0,0,-1.9305,-1.9343,-1.9321,-1.9319,-1.9301,-1.9302,-1.93,-1.9262,-1.9232,-1.9248,-1.9223,-1.9187,-1.9195,-1.9173,-1.9172,-1.92,-1.921,-1.9215,-1.922,-1.9287,-1.93,-1.9311,0,0,0,0,0,0,-1.9381,-1.9338,-1.9312,-1.934,-1.9326,-1.929,-1.9309,-1.9277,-1.927,-1.9264,-1.9217,-1.9211,-1.9234,-1.9219,-1.9194,-1.9239,-1.9197,-1.9202,-1.9248,-1.926,-1.927,-1.9272,-1.9134,0,0,0,0,0,-1.9401,-1.9406,-1.9368,-1.9396,-1.939,-1.9351,-1.935,-1.9322,-1.9305,-1.9298,-1.9274,-1.9259,-1.9258,-1.9258,-1.9255,-1.9289,-1.928,-1.9307,-1.9317,-1.9325,-1.933,-1.9345,-1.9356,-1.9238,-1.9238,-1.9238,0,0,-1.9442,-1.9419,-1.9425,-1.941,-1.9396,-1.9401,-1.9346,-1.9355,-1.9358,-1.9299,-1.9313,-1.9296,-1.9275,-1.9301,-1.931,-1.9288,-1.9361,-1.9332,-1.9338,-1.9338,-1.9351,-1.9362,-1.9372,-1.9241,-1.9241,-1.924,0,0,-1.9519,-1.9503,-1.9524,-1.951,-1.9488,-1.9462,-1.9467,-1.9436,-1.9421,-1.9435,-1.939,-1.9394,-1.9394,-1.938,-1.9374,-1.9446,-1.9411,-1.9446,-1.9497,-1.9512,-1.9521,-1.9529,-1.9553,-1.9562,-1.9451,-1.9451,-1.9451,0,-1.9573,-1.958,-1.9539,-1.955,-1.9544,-1.9491,-1.9511,-1.95,-1.9479,-1.9476,-1.9452,-1.9449,-1.9432,-1.9452,-1.9469,-1.9466,-1.947,-1.9449,-1.9523,-1.953,-1.9537,-1.9559,-1.9569,-1.9455,-1.9455,-1.9454,-1.9454,0,-1.9647,-1.9652,-1.9671,-1.9651,-1.9648,-1.9664,-1.9624,-1.9626,-1.9598,-1.9575,-1.9588,-1.9566,-1.9556,-1.9559,-1.9533,-1.9575,-1.9562,-1.9531,-1.9488,-1.9553,-1.9573,-1.9581,-1.9461,-1.946,-1.9459,-1.9457,0,0,-1.977,-1.9726,-1.9734,-1.9723,-1.9695,-1.9698,-1.9711,-1.9702,-1.9703,-1.969,-1.9699,-1.97,-1.967,-1.9663,-1.9634,-1.9648,-1.9703,-1.9614,-1.9613,-1.963,-1.9747,-1.9769,-1.978,-1.9681,-1.9683,-1.9684,-1.9748,0,-1.984,-1.986,-1.9823,-1.9851,-1.9854,-1.9804,-1.9815,-1.9798,-1.9776,-1.9776,-1.9752,-1.9752,-1.9714,-1.9709,-1.972,-1.9694,-1.9726,-1.9689,-1.9688,-1.9688,-1.9693,-1.979,-1.9814,-1.9876,-1.9756,-1.9757,-1.9758,0,-1.9925,-1.9915,-1.9943,-1.9912,-1.9912,-1.9923,-1.991,-1.9911,-1.9891,-1.9874,-1.9865,-1.9831,-1.9841,-1.98,-1.9812,-1.9788,-1.9785,-1.9772,-1.9774,-1.9771,-1.9726,-1.9789,-1.9895,-1.9904,-1.977,-1.9769,-1.9768,0,-2.001,-2.0004,-2.002,-2.0013,-1.9977,-1.9985,-1.9971,-1.9948,-1.9945,-1.9934,-1.9931,-1.9922,-1.9916,-1.991,-1.9874,-1.9848,-1.989,-1.9846,-1.9874,-1.9875,-1.9885,-1.9884,-1.999,-1.9886,-1.9886,-1.9886,-1.9885,0,-2.0091,-2.011,-2.0057,-2.0067,-2.0086,-2.0043,-2.0063,-2.0044,-2.0025,-2.0029,-1.9985,-1.999,-1.9943,-1.9943,-1.9915,-1.9928,-1.9926,-1.9912,-1.9904,-1.9915,-1.9917,-1.9911,-1.9906,-1.9888,-1.9887,-1.9887,-1.9887,0,-2.0189,-2.0155,-2.0168,-2.0133,-2.0124,-2.014,-2.0109,-2.0116,-2.0092,-2.0097,-2.0096,-2.0057,-2.0054,-2.0018,-2.0008,-1.9989,-2.0012,-1.9997,-2.0019,-2.0013,-2.0043,-2.004,-2.0148,-2.0159,-2.005,-2.0051,-2.0052,0,-2.0243,-2.0256,-2.0222,-2.0221,-2.0209,-2.0209,-2.0204,-2.0163,-2.016,-2.0137,-2.0147,-2.014,-2.0133,-2.013,-2.0101,-2.0092,-2.0075,-2.0114,-2.0073,-2.0083,-2.0073,-2.0072,-2.0073,-2.0122,-2.0123,-2.0124,-2.0125,0,-2.034,-2.0322,-2.0318,-2.0307,-2.0303,-2.0292,-2.0279,-2.0281,-2.0235,-2.0234,-2.0231,-2.0225,-2.0213,-2.0207,-2.0193,-2.0177,-2.0143,-2.0138,-2.0144,-2.0154,-2.0166,-2.0158,-2.004,-2.0136,-2.0135,-2.0134,-2.0133,-2.0133,-2.0416,-2.0425,-2.0402,-2.0398,-2.0383,-2.0372,-2.0376,-2.0351,-2.0348,-2.0335,-2.0311,-2.031,-2.0288,-2.0266,-2.0253,-2.0251,-2.0231,-2.024,-2.0242,-2.0245,-2.025,-2.0167,-2.0249,-2.0249,-2.0248,-2.0248,-2.0248,0,-2.051,-2.0493,-2.049,-2.0472,-2.0469,-2.0437,-2.0421,-2.042,-2.042,-2.0403,-2.0396,-2.0391,-2.0384,-2.0353,-2.0343,-2.0348,-2.0332,-2.0346,-2.0344,-2.0341,-2.0269,-2.0264,-2.0359,-2.0359,-2.0359,-2.0359,-2.0359,-2.0359,-2.0559,-2.0571,-2.055,-2.0555,-2.0537,-2.0536,-2.0529,-2.0518,-2.0503,-2.05,-2.0494,-2.0474,-2.0451,-2.0438,-2.043,-2.0421,-2.0419,-2.0438,-2.0424,-2.0357,-2.0346,-2.0336,-2.0331,-2.0438,-2.0439,-2.0496,-2.0496,-2.0497]},{"header":{"parameterUnit":"m.s-1","parameterCategory":1,"la1":30.2991,"la2":30.254,"lo1":-89.0895,"lo2":-89.0444,"dy":0.0017,"dx":0.0017,"nx":28,"ny":28,"refTime":"2024-06-12T09:00:00:Z","depth":0,"parameterNumber":3,"parameterNumberName":"V-component_of_WINDS"},"data":[0,0,0,0,0,0,0,0,0,0,0,0,0,0,0,0,0,0,0,0,0,0,0,0,0,0,0,0,0,0,0,0,0,0,0,0,0,0,0,0,0,0,0,0,0,0,0,0,0,0,0,0,0,0,0,0,0,0,-1.9013,-1.9015,0,-1.9164,-1.9165,-1.9167,-1.9238,-1.9238,-1.9238,-1.9238,-1.9387,-1.9391,-1.9395,0,0,0,0,0,0,0,0,0,0,0,0,0,-1.8783,-1.8786,-1.9013,-1.9015,-1.9017,-1.9163,-1.9165,-1.9167,-1.9238,-1.9238,-1.9238,-1.9238,-1.9386,-1.939,-1.9395,0,0,0,0,0,0,0,0,0,0,0,0,0,-1.8903,-1.8788,-1.9013,-1.907,-1.9076,-1.9163,-1.9165,-1.9168,-1.9238,-1.9238,-1.9238,-1.9238,-1.9384,-1.939,-1.9396,-1.9435,0,0,-1.9414,-1.9417,0,0,0,0,0,0,0,0,-1.8896,-1.8911,-1.906,-1.9066,-1.9074,-1.9182,-1.9139,-1.9257,-1.9238,-1.9176,-1.9238,-1.9238,-1.9319,-1.933,-1.9358,-1.9442,-1.9449,-1.9415,-1.9419,-1.9421,-1.9423,0,0,0,0,0,0,0,-1.8887,-1.8905,-1.9072,-1.9062,-1.907,-1.9086,-1.9103,-1.9162,-1.9246,-1.9182,-1.9187,-1.9204,-1.9322,-1.9352,-1.9362,-1.9451,-1.9415,-1.942,-1.9424,-1.9426,-1.9575,-1.9576,0,0,0,0,0,0,-1.887,-1.8897,-1.9068,-1.9077,-1.8983,-1.9091,-1.911,-1.9147,-1.9246,-1.9261,-1.9204,-1.9207,-1.9342,-1.9355,-1.9368,-1.9421,-1.9421,-1.9427,-1.943,-1.9575,-1.9575,-1.9576,0,0,0,0,0,0,-1.8865,-1.8885,-1.9062,-1.8989,-1.9013,-1.9095,-1.9136,-1.915,-1.918,-1.9263,-1.9278,-1.922,-1.9342,-1.9359,-1.9419,-1.9427,-1.943,-1.9435,-1.9575,-1.9575,-1.9576,-1.9527,0,0,0,0,0,0,-1.8858,-1.8883,-1.8899,-1.8989,-1.9016,-1.9111,-1.9137,-1.9153,-1.9191,-1.9196,-1.9281,-1.9295,-1.9344,-1.9409,-1.9424,-1.9436,-1.944,-1.9574,-1.9575,-1.9575,-1.9529,-1.9526,-1.9524,0,0,0,0,0,-1.885,-1.8879,-1.89,-1.892,-1.9039,-1.9111,-1.9127,-1.9184,-1.9192,-1.9209,-1.9262,-1.9292,-1.9424,-1.9415,-1.9433,-1.9446,-1.9574,-1.9575,-1.9575,-1.953,-1.9527,-1.9524,0,0,0,0,0,0,-1.8787,-1.8892,-1.8916,-1.8975,-1.9034,-1.9123,-1.9147,-1.9178,-1.9235,-1.9237,-1.9303,-1.9322,-1.9375,-1.9416,-1.9404,-1.9489,-1.9502,-1.9506,-1.9461,-1.9459,-1.9456,-1.9445,-1.9445,0,0,0,0,0,-1.878,-1.8831,-1.8919,-1.8963,-1.8991,-1.9064,-1.9097,-1.9136,-1.9199,-1.9223,-1.9281,-1.9339,-1.9394,-1.9428,-1.9483,-1.9535,-1.9554,-1.9552,-1.955,-1.9548,-1.9551,-1.9582,-1.9582,-1.9578,-1.9578,-1.9578,0,0,-1.8766,-1.8829,-1.8857,-1.8952,-1.9002,-1.9052,-1.9084,-1.9136,-1.9174,-1.9231,-1.9291,-1.9335,-1.9404,-1.946,-1.9488,-1.9496,-1.9556,-1.9549,-1.9546,-1.9551,-1.9582,-1.9583,-1.9583,-1.9579,-1.9579,-1.9579,0,0,-1.8766,-1.882,-1.8862,-1.8912,-1.8988,-1.9036,-1.9046,-1.9131,-1.9163,-1.9225,-1.9269,-1.9314,-1.9406,-1.9454,-1.9491,-1.9509,-1.954,-1.9525,-1.9514,-1.9543,-1.9543,-1.9544,-1.9551,-1.9552,-1.9528,-1.9528,-1.9528,0,-1.8739,-1.8818,-1.8879,-1.893,-1.8969,-1.9025,-1.9068,-1.9113,-1.9202,-1.9228,-1.9236,-1.9354,-1.9405,-1.9473,-1.9477,-1.9505,-1.9518,-1.9516,-1.9538,-1.954,-1.9541,-1.9548,-1.9551,-1.9526,-1.9526,-1.9526,-1.9526,0,-1.8781,-1.8835,-1.886,-1.8947,-1.8989,-1.9035,-1.9102,-1.9138,-1.9172,-1.9219,-1.9281,-1.9344,-1.9412,-1.9431,-1.9465,-1.9504,-1.9507,-1.9526,-1.954,-1.9538,-1.9546,-1.9549,-1.9522,-1.9523,-1.9524,-1.9524,0,0,-1.8746,-1.8867,-1.8875,-1.8915,-1.9003,-1.9045,-1.9093,-1.9162,-1.9191,-1.9251,-1.9292,-1.9369,-1.9388,-1.9429,-1.9469,-1.9494,-1.9505,-1.951,-1.9513,-1.9507,-1.9553,-1.9538,-1.954,-1.9526,-1.9527,-1.9527,-1.9547,0,-1.8759,-1.885,-1.8906,-1.8973,-1.9024,-1.9078,-1.9119,-1.9177,-1.9222,-1.927,-1.9319,-1.9373,-1.9393,-1.9418,-1.9446,-1.9498,-1.9515,-1.9497,-1.9565,-1.9566,-1.9546,-1.9545,-1.953,-1.9545,-1.955,-1.9551,-1.9551,0,-1.8786,-1.8846,-1.8919,-1.9002,-1.9026,-1.9062,-1.913,-1.9176,-1.9242,-1.9273,-1.9319,-1.9359,-1.9411,-1.942,-1.9492,-1.9479,-1.951,-1.9539,-1.9541,-1.955,-1.9559,-1.9554,-1.9551,-1.9554,-1.9557,-1.9556,-1.9556,0,-1.8754,-1.8853,-1.8909,-1.8942,-1.904,-1.9065,-1.9106,-1.9173,-1.9211,-1.9269,-1.9294,-1.9357,-1.9392,-1.9439,-1.9495,-1.9496,-1.9561,-1.9575,-1.9588,-1.9586,-1.9599,-1.9598,-1.9602,-1.9618,-1.9618,-1.9618,-1.9618,0,-1.8763,-1.8805,-1.8896,-1.8931,-1.898,-1.9044,-1.909,-1.9136,-1.9194,-1.9238,-1.9287,-1.9327,-1.9398,-1.9446,-1.949,-1.9543,-1.9558,-1.9584,-1.9595,-1.958,-1.9576,-1.9601,-1.9601,-1.9618,-1.9618,-1.9618,-1.9618,0,-1.8735,-1.8798,-1.8863,-1.8951,-1.8974,-1.9006,-1.9081,-1.9116,-1.9164,-1.9218,-1.9235,-1.9309,-1.9368,-1.9428,-1.9508,-1.9537,-1.9589,-1.9604,-1.9567,-1.9574,-1.9583,-1.9581,-1.9603,-1.961,-1.962,-1.962,-1.962,0,-1.8737,-1.8771,-1.8863,-1.8897,-1.8938,-1.8991,-1.9031,-1.9094,-1.9133,-1.9212,-1.9237,-1.93,-1.9354,-1.9446,-1.9506,-1.9567,-1.9584,-1.9588,-1.9594,-1.9578,-1.9585,-1.9582,-1.9586,-1.9586,-1.9585,-1.9585,-1.9585,0,-1.8733,-1.8763,-1.8819,-1.8886,-1.8932,-1.8987,-1.9043,-1.9068,-1.9142,-1.9183,-1.9245,-1.9287,-1.9369,-1.9431,-1.9499,-1.9541,-1.9575,-1.9582,-1.9589,-1.9573,-1.9551,-1.9564,-1.9562,-1.9581,-1.9582,-1.9582,-1.9582,-1.9582,-1.8721,-1.8754,-1.8825,-1.8885,-1.8935,-1.8987,-1.9024,-1.9077,-1.9131,-1.9203,-1.9237,-1.9299,-1.9365,-1.946,-1.9501,-1.955,-1.9559,-1.9568,-1.9571,-1.9572,-1.9568,-1.9543,-1.9563,-1.9563,-1.9563,-1.9563,-1.9563,0,-1.8721,-1.8769,-1.8824,-1.8902,-1.895,-1.8979,-1.9043,-1.9081,-1.9135,-1.9194,-1.9247,-1.9318,-1.9378,-1.9443,-1.9508,-1.9534,-1.9551,-1.9549,-1.9548,-1.9557,-1.9556,-1.9545,-1.9534,-1.9534,-1.9534,-1.9534,-1.9534,-1.9534,-1.8726,-1.8784,-1.8822,-1.8904,-1.8952,-1.9014,-1.9049,-1.9097,-1.9144,-1.9222,-1.9273,-1.9316,-1.9377,-1.9446,-1.9502,-1.952,-1.9541,-1.9534,-1.9556,-1.9554,-1.9557,-1.9559,-1.9548,-1.9538,-1.9538,-1.9553,-1.9553,-1.9553]}]]